Weather in Studenka

Czech Republic     49°42′43″N   18°04′15″E
temp.,
°C
wind,
m/s
gust,
m/s
humid.,
%
clouds,
%
prec.,
mm/h
press.,
hPa
HPBL,
m
27 february, sat
sat2701:00+4n3885100 2.8 1030715
04:00+3n3108897 0.1 1030649
07:00+2n249469 0.1 1031142
10:00+4nnw5876100 0.1 1032967
13:00+5n697898 0.1 1033909
16:00+4n697588 0.1 1034978
19:00+2n4108586 0.2 1036631
22:00+2n3886100 0.1 1036501
28 february, sun
sun2801:00+2nnw388799 0.2 1037311
04:00+1nnw238779 0.0 103645
07:000nne119367 0.0 103622
10:00+4nne347584 0.0 1036680
13:00+6ne126065 0.0 1035766
16:00+7e12570 0.0 1033550
19:00+3sw11750 0.0 103422
22:00+2nnw138310 0.0 103455
1 march, mon
mon101:00+3nne289441 0.0 1034339
04:00+3nne389699 0.0 1034400
07:00+2nne369689 0.0 1035315
10:00+3nne3489100 0.0 1035330
13:00+6nne347693 0.0 1035561
16:00+6ne237332 0.0 1034557
19:00+3ne128516 0.0 103522
22:00+2nne11870 0.0 103622
2 march, tue
tue201:00+2sw11870 0.0 103622
04:00+1sw22870 0.0 103522
07:00+2sw23850 0.0 103538
10:00+7sw35700 0.0 1035297
13:00+10sw34590 0.0 1034453
16:00+10sw34640 0.0 1033253
19:00+5sw23770 0.0 103323
22:00+4sw23770 0.0 103428
3 march, wed
wed301:00+3sw33810 0.0 103335
04:00+2sw33820 0.0 103336
07:00+2sw33820 0.0 103241
10:00+8sw35630 0.0 1031283
13:00+11sw475325 0.0 1030446
16:00+10sw595645 0.0 1028488
19:00+6sw477344 0.0 1028155
22:00+4sw358123 0.0 102792